H1 CPF 2 NER 2023 5 23 9 143 01 glonass135 H2 1600801 9135 41330 2023 5 23 0 0 0 2023 5 26 23 45 0 900 1 1 0 0 0 1 H9 10 0 60087 0.00000 0 10713537.319 -22744529.596 -4195825.728 10 0 60087 900.00000 0 10303239.254 -22131763.679 -7331513.554 10 0 60087 1800.00000 0 9842821.035 -21125546.939 -10324467.378 10 0 60087 2700.00000 0 9390196.666 -19738439.796 -13116446.239 10 0 60087 3600.00000 0 9000647.143 -17996239.897 -15653149.015 10 0 60087 4500.00000 0 8724299.034 -15937068.566 -17885274.880 10 0 60087 5400.00000 0 8603835.695 -13609953.124 -19769482.791 10 0 60087 6300.00000 0 8672538.442 -11072964.822 -21269231.305 10 0 60087 7200.00000 0 8952740.567 -8390990.709 -22355482.778 10 0 60087 8100.00000 0 9454759.337 -5633232.773 -23007258.913 10 0 60087 9000.00000 0 10176350.616 -2870538.727 -23212037.812 10 0 60087 9900.00000 0 11102708.599 -172675.394 -22965985.786 10 0 60087 10800.00000 0 12207010.135 2394342.436 -22274020.487 10 0 60087 11700.00000 0 13451480.381 4770757.631 -21149705.023 10 0 60087 12600.00000 0 14788934.701 6905307.916 -19614975.842 10 0 60087 13500.00000 0 16164732.002 8757103.279 -17699710.221 10 0 60087 14400.00000 0 17519057.661 10297067.312 -15441141.996 10 0 60087 15300.00000 0 18789440.475 11508884.386 -12883136.956 10 0 60087 16200.00000 0 19913398.472 12389415.130 -10075341.881 10 0 60087 17100.00000 0 20831103.002 12948564.736 -7072223.447 10 0 60087 18000.00000 0 21487949.794 13208611.273 -3932015.388 10 0 60087 18900.00000 0 21836929.450 13203023.582 -715593.966 10 0 60087 19800.00000 0 21840698.201 12974819.475 2514696.816 10 0 60087 20700.00000 0 21473262.101 12574534.014 5696247.818 10 0 60087 21600.00000 0 20721203.916 12057883.809 8767392.216 10 0 60087 22500.00000 0 19584400.877 11483225.845 11668594.816 10 0 60087 23400.00000 0 18076202.625 10908917.844 14343600.515 10 0 60087 24300.00000 0 16223061.019 10390691.201 16740520.089 10 0 60087 25200.00000 0 14063626.148 9979146.946 18812832.720 10 0 60087 26100.00000 0 11647345.020 9717480.049 20520286.200 10 0 60087 27000.00000 0 9032619.907 9639527.873 21829677.781 10 0 60087 27900.00000 0 6284601.521 9768225.139 22715500.757 10 0 60087 28800.00000 0 3472707.390 10114530.897 23160444.355 10 0 60087 29700.00000 0 667967.178 10676873.465 23155737.107 10 0 60087 30600.00000 0 -2059695.987 11441137.760 22701326.669 10 0 60087 31500.00000 0 -4644136.189 12381196.878 21805891.960 10 0 60087 32400.00000 0 -7025497.166 13459967.028 20486686.542 10 0 60087 33300.00000 0 -9152462.516 14630942.893 18769215.229 10 0 60087 34200.00000 0 -10984150.194 15840150.080 16686749.151 10 0 60087 35100.00000 0 -12491572.401 17028433.489 14279687.607 10 0 60087 36000.00000 0 -13658599.885 18133985.784 11594778.243 10 0 60087 36900.00000 0 -14482390.339 19095009.495 8684210.109 10 0 60087 37800.00000 0 -14973263.084 19852400.108 5604596.987 10 0 60087 38700.00000 0 -15154025.711 20352336.129 2415870.894 10 0 60087 39600.00000 0 -15058781.693 20548665.603 -819892.132 10 0 60087 40500.00000 0 -14731270.202 20404986.994 -4039690.206 10 0 60087 41400.00000 0 -14222809.460 19896335.185 -7180832.908 10 0 60087 42300.00000 0 -13589931.951 19010400.152 -10182172.351 10 0 60087 43200.00000 0 -12891813.005 17748225.852 -12985302.801 10 0 60087 44100.00000 0 -12187602.944 16124359.132 -15535704.478 10 0 60087 45000.00000 0 -11533776.883 14166441.921 -17783808.435 10 0 60087 45900.00000 0 -10981615.203 11914263.722 -19685961.424 10 0 60087 46800.00000 0 -10574921.716 9418314.154 -21205271.930 10 0 60087 47700.00000 0 -10348076.029 6737896.345 -22312321.292 10 0 60087 48600.00000 0 -10324502.099 3938880.165 -22985726.731 10 0 60087 49500.00000 0 -10515616.938 1091189.058 -23212546.282 10 0 60087 50400.00000 0 -10920303.051 -1733874.992 -22988518.745 10 0 60087 51300.00000 0 -11524925.926 -4466357.526 -22318135.054 10 0 60087 52200.00000 0 -12303895.024 -7040316.198 -21214540.561 10 0 60087 53100.00000 0 -13220743.989 -9396314.221 -19699270.931 10 0 60087 54000.00000 0 -14229684.158 -11483640.464 -17801827.271 10 0 60087 54900.00000 0 -15277565.794 -13262165.551 -15559099.045 10 0 60087 55800.00000 0 -16306164.596 -14703758.458 -13014646.053 10 0 60087 56700.00000 0 -17254697.515 -15793206.442 -10217853.305 10 0 60087 57600.00000 0 -18062462.407 -16528601.729 -7222974.943 10 0 60087 58500.00000 0 -18671490.912 -16921180.439 -4088085.470 10 0 60087 59400.00000 0 -19029103.356 -16994621.971 -873958.253 10 0 60087 60300.00000 0 -19090258.537 -16783839.405 2357107.286 10 0 60087 61200.00000 0 -18819599.706 -16333312.556 5542487.420 10 0 60087 62100.00000 0 -18193110.713 -15695034.323 8620441.840 10 0 60087 63000.00000 0 -17199312.406 -14926156.927 11531304.349 10 0 60087 63900.00000 0 -15839948.471 -14086437.088 14218633.780 10 0 60087 64800.00000 0 -14130131.068 -13235587.474 16630303.304 10 0 60087 65700.00000 0 -12097938.955 -12430645.532 18719507.432 10 0 60087 66600.00000 0 -9783483.516 -11723470.093 20445667.611 10 0 60087 67500.00000 0 -7237480.008 -11158470.761 21775219.260 10 0 60087 68400.00000 0 -4519381.893 -10770665.418 22682265.265 10 0 60087 69300.00000 0 -1695154.157 -10584147.598 23149083.336 10 0 60087 70200.00000 0 1165223.422 -10611028.498 23166477.310 10 0 60087 71100.00000 0 3990420.834 -10850898.717 22733965.184 10 0 60087 72000.00000 0 6710480.723 -11290833.200 21859799.634 10 0 60087 72900.00000 0 9259487.427 -11905940.262 20560819.727 10 0 60087 73800.00000 0 11578071.825 -12660432.699 18862135.698 10 0 60087 74700.00000 0 13615648.050 -13509176.974 16796651.808 10 0 60087 75600.00000 0 15332288.938 -14399656.098 14404435.488 10 0 60087 76500.00000 0 16700161.841 -15274264.052 11731944.121 10 0 60087 77400.00000 0 17704464.612 -16072835.074 8831123.903 10 0 60087 78300.00000 0 18343822.501 -16735300.762 5758398.019 10 0 60087 79200.00000 0 18630129.402 -17204362.035 2573563.966 10 0 60087 80100.00000 0 18587840.539 -17428061.892 -661377.971 10 0 60087 81000.00000 0 18252747.056 -17362148.894 -3883441.395 10 0 60087 81900.00000 0 17670285.201 -16972129.977 -7029890.848 10 0 60087 82800.00000 0 16893452.726 -16234924.399 -10039473.820 10 0 60087 83700.00000 0 15980421.917 -15140047.706 -12853622.563 10 0 60087 84600.00000 0 14991951.506 -13690274.689 -15417601.193 10 0 60087 85500.00000 0 13988708.106 -11901752.678 -17681574.968 10 0 60088 0.00000 0 13028611.431 -9803560.125 -19601580.339 10 0 60088 900.00000 0 12164315.477 -7436727.612 -21140377.825 10 0 60088 1800.00000 0 11440933.468 -4852765.147 -22268168.976 10 0 60088 2700.00000 0 10894100.501 -2111753.605 -22963167.576 10 0 60088 3600.00000 0 10548456.174 719917.312 -23212012.239 10 0 60088 4500.00000 0 10416609.630 3572071.499 -23010014.496 10 0 60088 5400.00000 0 10498629.475 6373424.523 -22361238.395 10 0 60088 6300.00000 0 10782078.863 9054306.581 -21278410.995 10 0 60088 7200.00000 0 11242593.081 11549318.109 -19782666.262 10 0 60088 8100.00000 0 11844974.418 13799808.831 -17903127.875 10 0 60088 9000.00000 0 12544757.502 15756078.635 -15676339.332 10 0 60088 9900.00000 0 13290178.824 17379210.222 -13145552.509 10 0 60088 10800.00000 0 14024467.331 18642458.891 -10359888.399 10 0 60088 11700.00000 0 14688359.737 19532143.150 -7373386.057 10 0 60088 12600.00000 0 15222734.793 20048000.504 -4243957.928 10 0 60088 13500.00000 0 15571255.848 20202994.978 -1032271.470 10 0 60088 14400.00000 0 15682910.667 20022585.604 2199421.618 10 0 60088 15300.00000 0 15514341.707 19543487.461 5388486.193 10 0 60088 16200.00000 0 15031868.756 18811977.887 8473111.561 10 0 60088 17100.00000 0 14213118.613 17881819.297 11393503.476 10 0 60088 18000.00000 0 13048192.754 16811885.948 14093037.473 10 0 60088 18900.00000 0 11540323.155 15663594.183 16519351.630 10 0 60088 19800.00000 0 9705987.576 14498243.771 18625358.034 10 0 60088 20700.00000 0 7574478.051 13374381.586 20370153.742 10 0 60088 21600.00000 0 5186938.908 12345297.903 21719813.997 10 0 60088 22500.00000 0 2594912.586 11456760.003 22648052.571 10 0 60088 23400.00000 0 -141548.061 10745078.023 23136736.572 10 0 60088 24300.00000 0 -2956124.320 10235584.138 23176245.606 10 0 60088 25200.00000 0 -5778741.446 9941589.144 22765667.993 10 0 60088 26100.00000 0 -8538240.905 9863860.655 21912829.589 10 0 60088 27000.00000 0 -11165105.164 9990645.467 20634153.838 10 0 60088 27900.00000 0 -13594122.549 10298235.908 18954354.703 10 0 60088 28800.00000 0 -15766881.656 10752057.093 16905967.365 10 0 60088 29700.00000 0 -17633991.548 11308230.000 14528724.734 10 0 60088 30600.00000 0 -19156934.912 11915544.906 11868790.942 10 0 60088 31500.00000 0 -20309476.431 12517762.054 8977866.119 10 0 60088 32400.00000 0 -21078567.096 13056142.100 5912179.554 10 0 60088 33300.00000 0 -21464706.343 13472098.730 2731390.927 10 0 60088 34200.00000 0 -21481746.824 13709860.189 -502578.451 10 0 60088 35100.00000 0 -21156150.386 13719025.798 -3726760.768 10 0 60088 36000.00000 0 -20525727.289 13456907.749 -6878378.450 10 0 60088 36900.00000 0 -19637912.806 12890557.599 -9896077.120 10 0 60088 37800.00000 0 -18547655.167 11998390.327 -12721129.519 10 0 60088 38700.00000 0 -17315005.286 10771336.100 -15298585.906 10 0 60088 39600.00000 0 -16002511.275 9213470.206 -17578347.659 10 0 60088 40500.00000 0 -14672528.761 7342093.884 -19516142.780 10 0 60088 41400.00000 0 -13384561.111 5187262.224 -21074384.262 10 0 60088 42300.00000 0 -12192742.021 2790778.691 -22222894.954 10 0 60088 43200.00000 0 -11143566.237 204698.266 -22939485.479 10 0 60088 44100.00000 0 -10273963.310 -2510598.393 -23210374.891 10 0 60088 45000.00000 0 -9609794.337 -5288679.538 -23030446.904 10 0 60088 45900.00000 0 -9164833.561 -8059591.248 -22403337.739 10 0 60088 46800.00000 0 -8940276.104 -10752535.963 -21341354.860 10 0 60088 47700.00000 0 -8924791.016 -13298589.958 -19865228.899 10 0 60088 48600.00000 0 -9095115.983 -15633347.746 -18003704.185 10 0 60088 49500.00000 0 -9417167.449 -17699384.658 -15792976.097 10 0 60088 50400.00000 0 -9847618.540 -19448436.419 -13275986.283 10 0 60088 51300.00000 0 -10335877.704 -20843206.400 -10501589.328 10 0 60088 52200.00000 0 -10826384.427 -21858726.668 -7523606.792 10 0 60088 53100.00000 0 -11261125.148 -22483217.383 -4399786.695 10 0 60088 54000.00000 0 -11582263.429 -22718409.915 -1190688.271 10 0 60088 54900.00000 0 -11734773.625 -22579321.264 2041486.746 10 0 60088 55800.00000 0 -11668967.172 -22093490.062 5234093.980 10 0 60088 56700.00000 0 -11342805.064 -21299706.823 8325254.502 10 0 60088 57600.00000 0 -10723898.968 -20246291.992 11255048.129 10 0 60088 58500.00000 0 -9791116.348 -18988994.125 13966669.150 10 0 60088 59400.00000 0 -8535721.434 -17588596.203 16407522.521 10 0 60088 60300.00000 0 -6962003.077 -16108330.105 18530239.742 10 0 60088 61200.00000 0 -5087361.803 -14611207.187 20293595.129 10 0 60088 62100.00000 0 -2941850.776 -13157376.271 21663305.145 10 0 60088 63000.00000 0 -567187.922 -11801619.205 22612695.573 10 0 60088 63900.00000 0 1984721.572 -10591088.418 23123223.722 10 0 60088 64800.00000 0 4653692.888 -9563380.928 23184845.454 10 0 60088 65700.00000 0 7373521.886 -8745029.298 22796219.565 10 0 60088 66600.00000 0 10074505.780 -8150472.884 21964744.949 10 0 60088 67500.00000 0 12686120.745 -7781552.727 20706428.965 10 0 60088 68400.00000 0 15139746.109 -7627551.712 19045588.552 10 0 60088 69300.00000 0 17371322.254 -7665778.722 17014388.763 10 0 60088 70200.00000 0 19323831.683 -7862672.691 14652226.620 10 0 60088 71100.00000 0 20949499.538 -8175380.265 12004971.318 10 0 60088 72000.00000 0 22211621.193 -8553740.619 9124074.893 10 0 60088 72900.00000 0 23085939.878 -8942593.276 6065570.371 10 0 60088 73800.00000 0 23561516.121 -9284310.757 2888976.939 10 0 60088 74700.00000 0 23641052.133 -9521447.875 -343865.979 10 0 60088 75600.00000 0 23340657.500 -9599394.238 -3570012.230 10 0 60088 76500.00000 0 22689066.326 -9468916.154 -6726645.246 10 0 60088 77400.00000 0 21726339.465 -9088478.718 -9752311.827 10 0 60088 78300.00000 0 20502107.508 -8426248.306 -12588128.113 10 0 60088 79200.00000 0 19073429.716 -7461689.402 -15178933.180 10 0 60088 80100.00000 0 17502360.346 -6186687.158 -17474366.946 10 0 60088 81000.00000 0 15853326.002 -4606147.509 -19429850.944 10 0 60088 81900.00000 0 14190425.247 -2738048.894 -21007452.835 10 0 60088 82800.00000 0 12574764.556 -612943.078 -22176618.107 10 0 60088 83700.00000 0 11061942.585 1727074.257 -22914755.423 10 0 60088 84600.00000 0 9699787.910 4229880.249 -23207665.127 10 0 60088 85500.00000 0 8526444.242 6835265.687 -23049803.580 10 0 60089 0.00000 0 7568882.173 9477219.027 -22444379.343 10 0 60089 900.00000 0 6841897.756 12086460.270 -21403279.854 10 0 60089 1800.00000 0 6347639.381 14593116.241 -19946831.737 10 0 60089 2700.00000 0 6075679.331 16929431.436 -18103398.866 10 0 60089 3600.00000 0 6003626.656 19032399.081 -15908827.015 10 0 60089 4500.00000 0 6098253.677 20846205.347 -13405745.740 10 0 60089 5400.00000 0 6317087.676 22324385.858 -10642740.995 10 0 60089 6300.00000 0 6610400.017 23431605.826 -7673414.283 10 0 60089 7200.00000 0 6923508.384 24144990.666 -4555346.346 10 0 60089 8100.00000 0 7199294.880 24454952.600 -1348985.117 10 0 60089 9000.00000 0 7380833.759 24365479.632 1883520.869 10 0 60089 9900.00000 0 7414017.989 23893875.544 5079521.288 10 0 60089 10800.00000 0 7250073.907 23069962.311 8177072.219 10 0 60089 11700.00000 0 6847857.927 21934778.624 11116130.659 10 0 60089 12600.00000 0 6175838.238 20538829.094 13839712.580 10 0 60089 13500.00000 0 5213677.609 18939957.239 16294992.508 10 0 60089 14400.00000 0 3953349.876 17200930.968 18434323.776 10 0 60089 15300.00000 0 2399742.109 15386841.034 20216160.091 10 0 60089 16200.00000 0 570715.665 13562420.692 21605860.953 10 0 60089 17100.00000 0 -1503378.221 11789397.921 22576365.619 10 0 60089 18000.00000 0 -3780710.065 10123990.300 23108722.678 10 0 60089 18900.00000 0 -6209470.882 8614646.663 23192464.885 10 0 60089 19800.00000 0 -8729797.681 7300129.548 22825821.653 10 0 60089 20700.00000 0 -11276047.366 6208018.392 22015764.504 10 0 60089 21600.00000 0 -13779326.020 5353696.063 20777883.730 10 0 60089 22500.00000 0 -16170169.470 4739861.254 19136097.669 10 0 60089 23400.00000 0 -18381264.214 4356587.388 17122199.100 10 0 60089 24300.00000 0 -20350095.570 4181925.739 14775246.508 10 0 60089 25200.00000 0 -22021412.406 4183027.498 12140811.076 10 0 60089 26100.00000 0 -23349404.902 4317737.434 9270093.382 10 0 60089 27000.00000 0 -24299503.524 4536591.555 6218926.642 10 0 60089 27900.00000 0 -24849723.040 4785133.718 3046685.960 10 0 60089 28800.00000 0 -24991494.447 5006452.201 -184874.682 10 0 60089 29700.00000 0 -24729949.423 5143827.604 -3412834.212 10 0 60089 30600.00000 0 -24083645.194 5143378.429 -6574340.320 10 0 60089 31500.00000 0 -23083741.642 4956590.686 -9607844.035 10 0 60089 32400.00000 0 -21772665.923 4542622.823 -12454307.684 10 0 60089 33300.00000 0 -20202321.671 3870286.975 -15058361.663 10 0 60089 34200.00000 0 -18431919.273 2919621.512 -17369386.570 10 0 60089 35100.00000 0 -16525519.502 1682987.523 -19342499.192 10 0 60089 36000.00000 0 -14549394.681 165642.276 -20939423.085 10 0 60089 36900.00000 0 -12569318.804 -1614234.922 -22129227.084 10 0 60089 37800.00000 0 -10647900.475 -3626065.838 -22888918.049 10 0 60089 38700.00000 0 -8842070.160 -5827923.668 -23203877.225 10 0 60089 39600.00000 0 -7200826.226 -8168066.801 -23068132.731 10 0 60089 40500.00000 0 -5763332.864 -10586892.090 -22484463.959 10 0 60089 41400.00000 0 -4557447.868 -13019226.471 -21464336.790 10 0 60089 42300.00000 0 -3598740.072 -15396861.771 -20027671.681 10 0 60089 43200.00000 0 -2890035.577 -17651227.722 -18202449.702 10 0 60089 44100.00000 0 -2421509.815 -19716092.573 -16024164.482 10 0 60089 45000.00000 0 -2171319.825 -21530179.628 -13535130.849 10 0 60089 45900.00000 0 -2106748.595 -23039591.612 -10783663.450 10 0 60089 46800.00000 0 -2185812.154 -24199942.707 -7823141.109 10 0 60089 47700.00000 0 -2359260.863 -24978110.222 -4710974.762 10 0 60089 48600.00000 0 -2572890.032 -25353533.578 -1507498.642 10 0 60089 49500.00000 0 -2770062.128 -25319007.056 1725194.162 10 0 60089 50400.00000 0 -2894334.101 -24880933.707 4924449.489 10 0 60089 51300.00000 0 -2892078.944 -24059030.187 8028260.408 10 0 60089 52200.00000 0 -2714990.918 -22885495.013 10976462.967 10 0 60089 53100.00000 0 -2322368.691 -21403675.000 13711896.577 10 0 60089 54000.00000 0 -1683079.884 -19666285.402 16181506.958 10 0 60089 54900.00000 0 -777123.779 -17733257.668 18337370.757 10 0 60089 55800.00000 0 403274.432 -15669304.199 20137622.349 10 0 60089 56700.00000 0 1853084.998 -13541301.030 21547265.327 10 0 60089 57600.00000 0 3554436.451 -11415596.882 22538853.228 10 0 60089 58500.00000 0 5477123.289 -9355360.106 23093026.445 10 0 60089 59400.00000 0 7579639.366 -7418073.437 23198894.873 10 0 60089 60300.00000 0 9810695.892 -5653280.450 22854258.521 10 0 60089 61200.00000 0 12111162.747 -4100677.328 22065661.251 10 0 60089 62100.00000 0 14416353.912 -2788629.332 20848275.761 10 0 60089 63000.00000 0 16658563.167 -1733173.845 19225621.012 10 0 60089 63900.00000 0 18769745.235 -937551.710 17229116.505 10 0 60089 64800.00000 0 20684230.952 -392286.520 14897480.931 10 0 60089 65700.00000 0 22341363.024 -75808.480 12275985.948 10 0 60089 66600.00000 0 23687941.642 44403.555 9415578.873 10 0 60089 67500.00000 0 24680376.760 10210.388 6371891.033 10 0 60089 68400.00000 0 25286455.836 -129200.170 3204151.086 10 0 60089 69300.00000 0 25486651.842 -319640.872 -25975.030 10 0 60089 70200.00000 0 25274915.726 -504467.796 -3255594.093 10 0 60089 71100.00000 0 24658919.464 -627229.167 -6421820.913 10 0 60089 72000.00000 0 23659739.249 -634306.423 -9463013.576 10 0 60089 72900.00000 0 22310992.360 -477434.075 -12319983.325 10 0 60089 73800.00000 0 20657464.528 -115990.131 -14937154.415 10 0 60089 74700.00000 0 18753286.322 481041.087 -17263650.438 10 0 60089 75600.00000 0 16659736.081 1333517.767 -19254285.505 10 0 60089 76500.00000 0 14442762.483 2449067.266 -20870440.904 10 0 60089 77400.00000 0 12170331.304 3822536.331 -22080810.406 10 0 60089 78300.00000 0 9909707.862 5435988.257 -22862000.420 10 0 60089 79200.00000 0 7724788.725 7259247.256 -23198974.182 10 0 60089 80100.00000 0 5673593.700 9250967.215 -23085332.358 10 0 60089 81000.00000 0 3806021.815 11360180.225 -22523425.696 10 0 60089 81900.00000 0 2161963.544 13528260.272 -21524298.481 10 0 60089 82800.00000 0 769846.316 15691220.352 -20107464.699 10 0 60089 83700.00000 0 -354327.950 17782247.547 -18300521.854 10 0 60089 84600.00000 0 -1207415.127 19734370.871 -16138610.250 10 0 60089 85500.00000 0 -1799014.949 21483151.223 -13663728.368 10 0 60090 0.00000 0 -2150817.465 22969281.814 -10923917.811 10 0 60090 900.00000 0 -2295439.076 24140992.030 -7972331.861 10 0 60090 1800.00000 0 -2274797.933 24956153.125 -4866209.198 10 0 60090 2700.00000 0 -2138098.577 25384001.043 -1665767.414 10 0 60090 3600.00000 0 -1939510.839 25406402.843 1566958.967 10 0 60090 4500.00000 0 -1735641.375 25018614.960 4769315.175 10 0 60090 5400.00000 0 -1582904.591 24229501.663 7879234.512 10 0 60090 6300.00000 0 -1534903.868 23061204.544 10836435.266 10 0 60090 7200.00000 0 -1639933.568 21548276.682 13583583.343 10 0 60090 8100.00000 0 -1938707.217 19736317.244 16067398.553 10 0 60090 9000.00000 0 -2462407.914 17680162.969 18239683.520 10 0 60090 9900.00000 0 -3231143.533 15441711.281 20058255.722 10 0 60090 10800.00000 0 -4252872.593 13087464.957 21487764.990 10 0 60090 11700.00000 0 -5522847.107 10685899.737 22500380.972 10 0 60090 12600.00000 0 -7023597.336 8304763.626 23076337.335 10 0 60090 13500.00000 0 -8725460.889 6008419.432 23204322.157 10 0 60090 14400.00000 0 -10587636.026 3855340.426 22881706.603 10 0 60090 15300.00000 0 -12559717.082 1895862.813 22114606.892 10 0 60090 16200.00000 0 -14583649.717 170288.212 20917777.543 10 0 60090 17100.00000 0 -16596025.915 -1292584.995 19314336.949 10 0 60090 18000.00000 0 -18530623.976 -2476440.236 17335329.513 10 0 60090 18900.00000 0 -20321088.012 -3377890.407 15019131.749 10 0 60090 19800.00000 0 -21903635.029 -4006375.971 12410712.887 10 0 60090 20700.00000 0 -23219675.868 -4383517.946 9560763.687 10 0 60090 21600.00000 0 -24218239.380 -4541953.409 6524709.992 10 0 60090 22500.00000 0 -24858097.061 -4523703.244 3361630.251 10 0 60090 23400.00000 0 -25109497.679 -4378141.941 133098.547 10 0 60090 24300.00000 0 -24955437.845 -4159656.489 -3098023.533 10 0 60090 25200.00000 0 -24392414.100 -3925094.867 -6268821.581 10 0 60090 26100.00000 0 -23430624.219 -3731113.724 -9317564.234 10 0 60090 27000.00000 0 -22093609.020 -3631539.238 -12184914.918 10 0 60090 27900.00000 0 -20417349.802 -3674854.403 -14815094.717 10 0 60090 28800.00000 0 -18448859.847 -3901920.467 -17156972.827 10 0 60090 29700.00000 0 -16244329.738 -4344029.928 -19165062.846 10 0 60090 30600.00000 0 -13866905.031 -5021374.088 -20800405.409 10 0 60090 31500.00000 0 -11384190.024 -5941990.277 -22031320.248 10 0 60090 32400.00000 0 -8865582.471 -7101233.246 -22834013.687 10 0 60090 33300.00000 0 -6379550.640 -8481793.010 -23193030.665 10 0 60090 34200.00000 0 -3990966.057 -10054258.219 -23101543.487 10 0 60090 35100.00000 0 -1758602.322 -11778201.377 -22561472.789 10 0 60090 36000.00000 0 267096.981 -13603740.365 -21583439.311 10 0 60090 36900.00000 0 2045889.868 -15473510.990 -20186548.231 10 0 60090 37800.00000 0 3549170.903 -17324968.276 -18398010.848 10 0 60090 38700.00000 0 4760911.748 -19092920.681 -16252611.277 10 0 60090 39600.00000 0 5678070.096 -20712191.744 -13792028.665 10 0 60090 40500.00000 0 6310451.974 -22120298.516 -11064027.986 10 0 60090 41400.00000 0 6680034.976 -23260035.379 -8121534.911 10 0 60090 42300.00000 0 6819782.416 -24081855.749 -5021612.402 10 0 60090 43200.00000 0 6771999.440 -24545952.530 -1824358.534 10 0 60090 44100.00000 0 6586301.146 -24623950.650 1408253.450 10 0 60090 45000.00000 0 6317278.859 -24300141.046 4613570.683 10 0 60090 45900.00000 0 6021963.198 -23572204.510 7729468.992 10 0 60090 46800.00000 0 5757191.010 -22451394.927 10695550.951 10 0 60090 47700.00000 0 5576987.182 -20962173.907 13454310.766 10 0 60090 48600.00000 0 5530071.687 -19141311.468 15952243.854 10 0 60090 49500.00000 0 5657596.988 -17036489.600 18140880.062 10 0 60090 50400.00000 0 5991211.318 -14704466.022 19977720.903 10 0 60090 51300.00000 0 6551529.829 -12208873.643 21427063.081 10 0 60090 52200.00000 0 7347078.696 -9617746.230 22460692.659 10 0 60090 53100.00000 0 8373757.656 -7000872.138 23058436.583 10 0 60090 54000.00000 0 9614844.986 -4427085.078 23208560.829 10 0 60090 54900.00000 0 11041546.386 -1961603.620 22908007.162 10 0 60090 55800.00000 0 12614066.599 336470.721 22162463.378 10 0 60090 56700.00000 0 14283160.670 2416393.323 20986264.834 10 0 60090 57600.00000 0 15992101.555 4237661.355 19402128.199 10 0 60090 58500.00000 0 17678982.985 5771465.381 17440721.465 10 0 60090 59400.00000 0 19279262.011 7001647.183 15140077.491 10 0 60090 60300.00000 0 20728435.055 7925123.816 12544861.457 10 0 60090 61200.00000 0 21964735.029 8551760.312 9705505.756 10 0 60090 62100.00000 0 22931735.663 8903696.640 6677228.767 10 0 60090 63000.00000 0 23580752.579 9014157.846 3518956.577 10 0 60090 63900.00000 0 23872938.836 8925798.325 292169.101 10 0 60090 64800.00000 0 23780985.431 8688651.244 -2940306.123 10 0 60090 65700.00000 0 23290353.882 8357771.198 -6115527.918 10 0 60090 66600.00000 0 22399987.979 7990671.338 -9171677.896 10 0 60090 67500.00000 0 21122474.030 7644665.101 -12049273.971 10 0 60090 68400.00000 0 19483642.530 7374226.594 -14692336.210 10 0 60090 69300.00000 0 17521628.034 7228482.740 -17049481.366 10 0 60090 70200.00000 0 15285427.029 7248944.327 -19074924.283 10 0 60090 71100.00000 0 12833014.733 7467572.629 -20729366.528 10 0 60090 72000.00000 0 10229100.217 7905263.589 -21980755.206 10 0 60090 72900.00000 0 7542614.098 8570813.593 -22804897.826 10 0 60090 73800.00000 0 4844033.807 9460410.183 -23185922.118 10 0 60090 74700.00000 0 2202657.822 10557668.839 -23116572.909 10 0 60090 75600.00000 0 -316058.225 11834213.876 -22598341.330 10 0 60090 76500.00000 0 -2652993.665 13250778.782 -21641424.852 10 0 60090 77400.00000 0 -4757580.814 14758779.590 -20264519.739 10 0 60090 78300.00000 0 -6589658.279 16302295.332 -18494450.553 10 0 60090 79200.00000 0 -8120884.331 17820372.730 -16365644.271 10 0 60090 80100.00000 0 -9335653.424 19249558.839 -13919459.338 10 0 60090 81000.00000 0 -10231479.700 20526555.995 -11203382.627 10 0 60090 81900.00000 0 -10818833.347 21590888.316 -8270109.630 10 0 60090 82800.00000 0 -11120438.411 22387468.470 -5176525.480 10 0 60090 83700.00000 0 -11170062.930 22868957.596 -1982606.163 10 0 60090 84600.00000 0 -11010853.352 22997819.722 1249739.106 10 0 60090 85500.00000 0 -10693284.056 22747984.754 4457862.237 99